User: anonymous   Login
Location: Livonia
(42.3680°N, 83.3530°W)
Time: 23:04:53
(UTC-05:00)
Language:

MOZ.5/SAFIR/RUBIN 5/SL-8 - Orbit

View from above orbital plane
View from above orbital plane
View from above satellite
View from above satellite

Ground track
Ground track

The orbit data is extracted from the following two-line orbital elements,

1 28898U 05043G   15062.55381808  .00000684  00000-0  15199-3 0  9995
2 28898 097.8399 242.8586 0018855 301.8253 058.1112 14.59792122497758
Epoch (UTC): 03 March 2015 13:17:29
Eccentricity: 0.0018855
inclination: 97.8399°
perigee height: 680 km
apogee height: 707 km
right ascension of ascending node: 242.8586°
argument of perigee: 301.8253°
revolutions per day: 14.59792122
mean anomaly at epoch: 58.1112°
orbit number at epoch: 49775

The dashed part of the orbit path shows where the satellite is in the earth's shadow,  

DLR